Location: Bottens
(46.6171°N, 6.6605°E)
Time: 17:54:16
(UTC+00:00)

Cosmos 1553 Rocket - Pass Details

Date: 20 June 2021
Orbit: 940 x 1009 km, 82.9° (Epoch: 30 July)

Event Time Altitude Azimuth Distance (km) Brightness Sun altitude
Rises 02:01:44 0° 350° (N) 3,719 7.8 -12.5°
Reaches altitude 10° 02:04:17 10° 349° (N) 2,757 7.0 -12.2°
Maximum altitude 02:10:36 79° 265° (W) 997 4.0 -11.6°
Drops below altitude 10° 02:16:46 10° 179° (S) 2,691 5.9 -11.0°
Enters shadow 02:17:53 - 178° (S) 3,114 6.2 -10.9°
